Theta_e
348 347 346 345 344 342 339 336 335 336 338 340 340 340 341 340 340 341 341 340 340 339 339 338 337 336 337 338 333 324 319 320 319 318 318 319 320 320 320 320 322 326
349 349 347 345 344 342 340 337 336 337 339 340 340 340 341 341 341 341 340 339 338 338 338 337 336 336 337 338 332 322 318 319 319 318 317 318 319 320 320 320 321 325
350 349 348 347 345 342 340 338 337 337 339 340 341 340 340 341 341 341 341 340 338 337 337 336 336 336 337 337 335 328 321 319 319 319 318 318 319 320 320 320 321 323
350 349 349 348 346 343 340 339 338 337 338 340 341 341 341 341 342 343 342 342 340 338 336 335 335 336 337 337 337 334 328 321 319 320 320 319 319 319 320 320 320 321
349 349 349 348 348 345 342 340 338 337 337 338 340 341 342 342 342 343 343 342 341 339 337 336 336 336 337 337 337 336 332 325 321 320 321 320 319 318 318 319 320 320
349 349 349 349 348 347 344 340 337 337 337 337 338 340 342 342 342 343 343 343 342 340 339 337 336 336 337 338 337 336 333 327 323 321 320 320 320 319 318 318 319 319
349 349 349 349 349 348 347 341 336 336 336 337 338 339 342 343 343 343 343 343 342 341 340 338 337 336 337 338 338 337 335 330 326 324 321 319 320 320 319 318 318 319
350 349 349 349 349 349 348 344 338 336 336 337 338 339 341 343 343 343 343 343 343 341 341 340 338 336 337 338 338 339 338 335 330 325 321 319 319 319 319 319 319 318
350 350 349 350 350 349 349 346 341 337 336 337 338 339 341 342 343 343 343 343 343 342 342 341 340 338 337 338 340 340 340 338 335 329 323 320 319 319 319 320 320 319
350 350 350 350 350 350 349 346 343 339 336 337 338 339 341 342 343 343 343 343 342 342 342 341 340 340 339 339 340 341 340 339 338 335 329 323 319 318 318 319 320 320
350 351 351 351 351 351 349 347 344 341 337 336 338 339 341 342 342 343 344 343 342 342 342 341 340 340 340 339 340 341 341 340 339 339 336 331 324 319 318 318 320 320
351 351 351 352 352 351 350 349 347 343 338 337 337 339 341 342 342 342 343 342 342 342 342 342 342 341 341 340 340 341 342 341 340 339 340 338 332 325 320 318 318 319
351 352 352 352 352 352 351 350 348 345 340 337 337 339 340 341 341 342 342 342 342 342 342 342 343 343 343 342 341 341 342 342 342 341 341 341 339 333 327 322 318 318
351 352 352 352 352 352 352 351 350 346 341 338 338 338 339 340 340 341 342 342 342 342 342 342 343 344 344 343 343 343 343 343 343 343 343 342 341 339 335 330 324 320
352 352 353 353 353 353 353 352 351 348 344 341 339 337 338 339 339 340 342 342 342 342 342 342 342 343 343 344 344 344 344 344 343 343 344 344 343 342 340 337 334 328
353 353 352 353 353 353 353 353 352 350 348 344 339 336 337 338 339 340 341 342 342 342 342 342 342 343 343 344 345 345 345 345 345 345 345 345 345 344 342 341 340 337
354 353 353 354 354 354 354 354 353 352 350 346 341 338 336 337 338 339 340 342 343 343 343 342 343 343 344 345 346 347 347 346 347 346 347 347 346 345 345 344 343 341
354 354 354 354 354 354 354 354 354 353 351 348 344 339 336 336 337 338 339 341 343 344 343 343 343 344 345 346 347 347 347 347 348 348 348 348 348 347 347 347 346 344
354 355 355 354 355 355 355 355 355 354 352 349 345 341 338 337 337 337 339 340 343 344 343 343 343 344 345 347 347 347 347 348 349 349 349 349 349 349 349 349 349 347
355 355 354 354 355 356 356 356 355 353 351 348 346 345 342 338 336 337 338 340 341 342 342 342 343 344 345 347 347 348 348 349 350 350 351 351 350 350 350 349 349 348
355 355 354 355 356 357 357 356 355 354 352 349 349 346 342 339 338 337 338 339 340 341 342 343 343 344 346 347 348 348 349 351 352 352 352 352 351 350 350 350 349 348
355 355 355 356 357 357 357 356 355 355 353 351 350 346 344 343 342 340 339 340 340 341 343 344 344 345 346 348 349 349 350 353 353 353 353 352 351 351 351 350 350 348
355 356 356 357 357 358 357 356 356 355 354 353 351 348 346 345 343 342 341 341 341 342 343 344 344 345 347 349 350 351 352 354 353 352 352 352 351 352 351 351 350 348
355 357 357 357 357 358 357 357 357 356 355 354 352 348 345 344 344 344 342 341 341 342 342 343 344 345 348 350 351 352 354 354 353 353 353 353 352 352 351 350 349 347
356 357 357 357 357 357 357 358 357 357 357 356 354 350 347 346 346 345 343 342 342 341 342 344 346 348 349 351 353 354 356 355 354 354 354 353 352 351 351 350 349 347
356 357 357 357 357 357 358 358 358 358 358 357 355 353 352 350 349 348 347 345 343 343 343 346 348 350 352 353 355 356 358 357 357 356 355 353 352 351 351 350 349 346
Wind_Speed
41 39 39 40 40 39 38 38 37 36 34 33 32 30 28 27 27 26 25 24 24 24 22 21 20 19 18 15 14 14 13 14 14 15 17 18 16 16 17 17 17 17
43 41 39 39 40 39 38 38 38 37 35 33 32 30 29 28 27 26 26 24 24 24 23 21 21 20 19 16 15 15 14 15 15 16 19 19 17 17 17 17 18 18
45 43 42 40 39 39 39 39 39 38 36 34 33 32 30 29 28 27 26 25 25 25 23 22 22 21 20 18 17 16 15 15 16 17 19 19 18 18 18 18 18 19
47 45 43 41 38 38 39 39 40 40 39 37 35 33 32 31 30 28 27 27 27 26 24 24 23 22 21 20 19 18 17 16 16 17 19 19 19 19 19 19 19 20
47 46 44 42 40 38 39 41 41 41 40 40 38 35 34 33 31 30 29 28 28 27 26 26 25 24 23 22 21 20 19 18 18 19 20 20 20 21 21 20 20 21
48 47 45 43 41 39 40 41 41 41 41 41 39 38 36 35 33 32 30 30 29 29 28 28 28 27 25 24 23 23 22 20 19 20 21 22 21 22 22 23 22 22
49 48 46 44 42 41 40 41 41 42 42 41 40 39 38 37 36 34 32 31 31 30 30 29 29 28 27 27 26 25 24 23 21 21 22 23 23 24 24 24 24 24
50 48 46 44 43 42 41 40 42 42 42 41 41 40 40 39 38 36 34 33 33 33 32 31 31 30 29 29 28 27 25 24 24 23 23 24 25 26 26 25 25 25
51 49 47 45 43 42 41 41 41 42 41 42 42 41 40 40 39 37 36 35 34 34 33 32 32 31 31 31 30 28 27 26 25 25 24 25 26 28 27 27 26 25
52 50 49 47 45 43 42 41 41 41 42 41 41 41 41 40 40 39 38 37 36 35 35 33 33 32 33 32 31 30 29 28 27 26 26 26 27 28 28 28 28 27
53 51 50 48 46 44 42 41 40 41 41 41 41 41 41 41 40 40 39 38 38 37 36 35 34 33 34 34 33 32 31 30 29 28 27 27 28 29 29 30 29 28
53 52 51 49 47 44 43 41 41 41 41 42 42 42 41 41 40 41 40 40 39 38 37 36 35 34 34 34 34 33 32 32 31 30 30 29 29 30 30 31 31 30
53 52 51 49 47 45 43 42 41 41 41 42 42 42 41 41 41 41 41 40 40 39 38 38 36 35 35 35 35 35 34 34 33 32 32 31 30 30 31 31 31 31
52 51 50 48 46 45 44 43 42 41 41 42 42 42 42 41 41 41 40 40 41 40 40 39 38 37 36 36 36 36 36 35 34 34 33 33 32 31 31 32 32 32
52 50 49 48 47 46 45 44 43 42 41 42 43 43 42 41 41 41 40 41 42 41 41 40 39 39 38 37 36 36 36 35 34 34 34 34 34 33 32 32 32 32
52 51 49 48 48 47 46 45 44 43 42 42 43 43 43 42 42 42 42 42 43 42 42 41 41 40 39 38 37 36 35 34 34 34 34 34 34 34 34 33 33 32
52 51 50 49 48 48 47 46 45 44 43 42 42 43 43 43 43 43 43 43 43 43 43 43 42 41 40 39 37 35 34 33 33 33 33 34 34 34 33 32 33 32
53 52 51 50 49 48 48 47 45 44 44 43 43 43 43 44 44 44 45 44 44 45 44 44 43 41 40 39 37 35 32 32 32 31 32 34 34 32 30 29 31 31
53 52 51 51 50 49 48 47 46 45 45 44 44 43 43 44 44 44 45 45 45 45 45 44 43 42 41 39 37 33 30 30 30 31 34 35 33 32 30 28 30 30
53 53 52 51 51 50 49 48 47 46 45 45 45 44 44 44 44 45 45 45 46 45 44 44 43 42 41 39 36 31 28 28 30 32 35 36 34 31 31 31 31 30
54 53 52 51 51 51 50 49 49 47 46 46 46 46 45 45 45 44 44 45 45 44 44 44 43 42 41 39 35 30 26 27 30 33 36 37 34 31 31 31 32 30
55 54 52 51 51 51 51 51 50 49 48 47 47 46 46 46 45 45 44 44 43 43 44 44 42 41 40 38 34 28 26 29 33 34 36 37 34 30 29 30 31 29
54 54 52 52 52 53 53 52 51 51 50 49 48 47 47 47 47 45 45 44 42 43 43 42 41 40 39 37 33 28 28 33 35 34 35 34 31 28 28 29 30 27
54 53 52 52 53 54 54 53 52 51 51 50 49 48 47 47 46 45 44 43 42 42 41 40 39 38 37 36 31 27 30 33 32 31 33 31 28 27 26 26 28 25
53 53 52 52 53 54 54 53 52 52 52 51 49 49 48 47 46 45 45 44 42 41 39 39 39 38 36 34 29 27 31 32 30 30 32 30 27 26 26 25 25 24
52 52 52 53 53 54 53 53 52 51 51 51 50 50 48 46 46 46 45 44 42 40 39 39 38 37 34 31 27 28 30 31 30 30 30 28 25 25 25 24 23 23
Wind_Direction
231 233 234 235 236 235 233 232 229 229 229 229 228 227 226 226 227 229 233 235 236 235 230 228 229 229 230 230 233 234 231 231 233 233 236 234 230 230 230 230 230 231
231 232 234 236 237 236 234 232 230 230 231 230 230 230 230 229 230 232 236 237 236 234 230 228 229 229 229 230 231 233 233 232 232 233 235 234 231 229 229 229 230 233
232 232 233 235 237 236 234 232 231 232 232 233 232 232 232 232 233 235 237 238 237 233 230 229 228 228 229 230 231 234 236 234 233 235 237 237 235 232 230 229 231 234
232 233 233 235 237 237 236 234 233 232 233 233 234 234 234 234 235 237 238 239 238 234 231 230 229 228 228 230 231 234 237 236 234 236 239 240 240 237 234 230 231 235
232 233 234 235 236 237 237 235 234 233 233 234 235 235 235 235 236 237 238 238 238 236 233 232 232 229 228 229 231 234 237 237 234 234 238 240 241 242 239 235 233 235
232 233 233 234 235 236 237 235 234 234 234 234 235 236 236 236 236 236 237 237 237 236 234 233 233 231 229 230 231 234 237 238 236 235 238 240 241 243 242 240 238 238
232 232 233 234 234 236 237 236 234 234 234 235 236 236 236 236 236 236 237 237 237 237 236 234 234 233 232 231 232 234 236 238 239 238 239 240 242 243 242 241 240 239
231 232 232 233 234 235 236 235 233 233 233 234 235 236 236 237 237 236 236 237 238 238 237 236 236 235 234 234 234 234 236 238 240 241 241 242 242 243 242 241 242 242
231 232 232 233 233 233 234 233 232 231 232 233 234 235 236 237 237 237 237 238 239 239 239 238 237 236 236 236 236 236 237 240 242 243 244 245 245 245 244 243 243 244
230 231 231 232 233 232 232 231 230 230 231 232 233 234 235 236 236 237 238 239 240 240 241 240 239 238 237 238 238 239 240 243 246 247 248 248 249 250 249 247 245 245
230 230 231 232 233 232 231 230 229 229 230 231 232 233 235 235 236 237 237 238 240 241 241 242 241 240 239 240 241 242 243 245 248 250 251 252 253 254 255 253 250 248
229 230 231 232 233 232 231 230 229 229 229 230 231 233 234 235 236 237 238 239 241 242 243 244 243 243 242 242 243 243 244 246 248 251 253 254 255 256 257 258 257 254
230 231 232 233 234 233 232 231 230 229 229 229 231 232 234 235 236 237 239 241 242 243 245 245 246 246 245 245 245 245 245 247 249 252 254 255 256 257 258 259 260 259
231 232 232 234 235 235 233 232 231 230 230 230 231 232 234 235 237 238 240 242 243 244 246 247 248 249 248 248 247 247 247 248 251 253 256 257 259 259 259 260 261 261
230 231 232 234 235 235 234 233 232 231 231 231 232 232 234 235 237 239 241 243 244 245 246 248 249 249 250 250 249 249 249 251 253 255 257 259 261 261 261 262 262 263
229 230 231 232 233 234 234 233 232 232 231 232 232 233 234 236 237 239 241 242 244 245 247 248 249 250 251 251 251 251 252 254 255 257 258 260 261 262 263 264 264 264
228 229 230 231 232 233 234 234 233 232 231 232 233 233 234 235 237 239 240 242 243 245 247 248 250 251 252 252 253 253 254 256 257 259 260 261 261 262 264 267 267 265
229 229 230 231 232 232 233 233 233 233 232 232 232 233 234 235 236 238 240 242 244 245 247 249 251 252 253 253 254 254 256 258 259 260 259 259 260 261 263 267 270 269
228 228 229 231 231 231 231 232 233 233 233 232 232 233 233 234 236 238 240 242 244 245 247 250 252 253 254 254 255 256 257 258 259 259 259 259 260 261 262 264 267 269
227 228 230 231 230 229 229 230 232 233 233 232 232 232 233 234 235 237 239 241 243 245 248 250 252 253 254 255 255 256 257 257 256 257 259 259 259 260 261 262 264 266
227 228 230 230 229 228 228 230 232 232 232 232 232 232 233 234 235 236 238 240 242 245 247 249 251 253 254 255 255 255 255 255 255 255 257 259 258 259 260 262 265 267
228 228 229 228 227 227 228 230 231 231 231 231 231 232 233 234 235 236 238 239 241 243 246 248 251 252 254 255 255 255 254 253 253 252 254 257 258 257 257 260 263 265
228 227 227 227 227 227 229 230 231 231 230 230 230 231 232 234 234 236 237 239 241 243 245 248 250 252 254 255 255 256 254 254 255 254 254 256 257 256 256 259 262 264
228 226 226 228 229 229 230 231 231 231 230 229 230 231 232 233 234 235 237 239 241 243 245 248 250 252 254 255 257 257 255 255 256 255 255 256 255 254 254 257 262 264
227 227 228 230 232 233 232 232 231 231 230 229 230 231 232 233 233 234 236 238 239 242 245 247 250 252 254 255 257 257 257 256 253 251 252 252 250 249 249 254 260 260
228 228 230 232 234 235 234 233 232 231 230 229 230 231 231 232 233 234 235 236 238 241 243 245 247 250 253 254 256 256 256 255 252 250 252 253 250 248 250 253 253 251